Szeged, Hungary

4:13 PM CEST on June 24, 2017 (GMT +0200)
Szeged

Weather History for LHUD - November, 2012

Change the Weather History Date:

Tuesday, November 13, 2012

  Actual Average (LRAR) Record (LRAR)
Temperature  
Mean Temperature 48 °F -  
Max Temperature 52 °F 45 °F 66 °F (1997)
Min Temperature 42 °F 32 °F 23 °F (2011)
Degree Days  
Heating Degree Days 17    
Moisture  
Dew Point 46 °F    
Average Humidity 91    
Maximum Humidity 100    
Minimum Humidity 76    
Precipitation  
Precipitation 0.24 in 0.05 in - ()
Sea Level Pressure  
Sea Level Pressure 30.37 in    
Wind  
Wind Speed 8 mph ()    
Max Wind Speed 15 mph    
Max Gust Speed -    
Visibility 4.7 miles    
Events Rain    
Averages and records for this station are not official NWS values.
T = Trace of Precipitation, MM = Missing Value Source: Averaged Metar Reports

Daily Weather History Graph

Daily Weather History Graph

Search for Another Location

Airport or City:

Trip Planner

Search our weather history database for the weather conditions in past years. The results will help you decide how hot, cold, wet, or windy it might be!

Date:

Astronomy

Nov. 13, 2012 Rise Set
Actual Time 6:38 AM CET 4:09 PM CET
Civil Twilight 6:05 AM CET 4:41 PM CET
Nautical Twilight 5:29 AM CET 5:17 PM CET
Astronomical Twilight 4:54 AM CET 5:53 PM CET
Moon 5:53 AM CET (11/13) 3:46 PM CET (11/13)
Length of Visible Light 10h 35m
Length of Day
9h 30m
Waning Crescent, 0% of the Moon is Illuminated
Nov 13
Waning Crescent
Nov 13
New
Nov 20
First Quarter
Nov 28
Full
Dec 6
Last Quarter

Hourly Weather History & Observations

Time (CET) Temp. Windchill Dew Point Humidity Pressure Visibility Wind Dir Wind Speed Gust Speed Precip Events Conditions
12:45 AM 48.2 °F - 48.2 °F 100% 30.27 in - NW 3.5 mph - N/A   Clear
1:00 AM 48 °F - 47 °F 96% 30.28 in 6 mi NW 4.5 mph - -   Partly Cloudy
1:45 AM 50.0 °F - 48.2 °F 94% 30.27 in - NW 5.8 mph - N/A   Clear
2:45 AM 50.0 °F - 48.2 °F 94% 30.30 in - NNW 6.9 mph - N/A   Clear
4:45 AM 50.0 °F - 48.2 °F 94% 30.27 in - NNW 8.1 mph - N/A   Clear
5:15 AM 50.0 °F - 48.2 °F 94% 30.30 in - NNW 8.1 mph - N/A   Clear
5:45 AM 50.0 °F - 48.2 °F 94% 30.30 in - NW 8.1 mph - N/A   Clear
6:15 AM 50.0 °F - 48.2 °F 94% 30.30 in 2.8 mi NNW 9.2 mph - N/A   Overcast
6:37 AM 48.2 °F - 48.2 °F 100% 30.33 in 2.8 mi NNW 9.2 mph - N/A Rain Light Rain
6:45 AM 48.2 °F - 48.2 °F 100% 30.30 in 2.8 mi NW 9.2 mph - N/A Rain Light Rain
7:00 AM 49 °F - 48 °F 94% 30.32 in 3 mi NW 8.9 mph - - Rain Light Rain
7:15 AM 48.2 °F - 48.2 °F 100% 30.33 in 2.8 mi NNW 9.2 mph - N/A Rain Light Rain
7:45 AM 48.2 °F - 48.2 °F 100% 30.33 in 2.5 mi NNW 10.4 mph - N/A Rain Light Rain
8:15 AM 48.2 °F - 48.2 °F 100% 30.33 in - NNW 9.2 mph - N/A Rain Light Rain
8:45 AM 48.2 °F - 48.2 °F 100% 30.36 in - North 8.1 mph - N/A Rain Light Rain
9:15 AM 48.2 °F - 48.2 °F 100% 30.36 in 1.5 mi NNW 8.1 mph - N/A Rain Rain
9:45 AM 48.2 °F - 48.2 °F 100% 30.36 in 1.6 mi NNW 8.1 mph - N/A Rain Rain
10:15 AM 50.0 °F - 50.0 °F 100% 30.36 in 1.9 mi North 8.1 mph - N/A Rain Light Rain
10:45 AM 50.0 °F - 50.0 °F 100% 30.36 in 3.1 mi North 8.1 mph - N/A Rain Light Rain
11:15 AM 51.8 °F - 50.0 °F 94% 30.36 in 3.7 mi North 10.4 mph - N/A Rain Light Rain
11:45 AM 51.8 °F - 50.0 °F 94% 30.36 in 6.2 mi North 12.7 mph - N/A   Mostly Cloudy
12:15 PM 51.8 °F - 50.0 °F 94% 30.36 in 6.2 mi North 11.5 mph - N/A   Mostly Cloudy
12:45 PM 51.8 °F - 48.2 °F 88% 30.36 in 6.2 mi North 13.8 mph - N/A   Mostly Cloudy
1:00 PM 52 °F - 49 °F 84% 30.38 in 11 mi North 13.4 mph - -   Partly Cloudy
1:15 PM 51.8 °F - 48.2 °F 88% 30.39 in 6.2 mi North 15.0 mph - N/A   Mostly Cloudy
1:45 PM 51.8 °F - 48.2 °F 88% 30.39 in 6.2 mi North 13.8 mph - N/A   Mostly Cloudy
2:15 PM 51.8 °F - 48.2 °F 88% 30.39 in 6.2 mi North 10.4 mph - N/A   Overcast
2:45 PM 51.8 °F - 48.2 °F 88% 30.39 in 6.2 mi North 10.4 mph - N/A   Overcast
3:15 PM 51.8 °F - 48.2 °F 88% 30.39 in 6.2 mi North 9.2 mph - N/A   Mostly Cloudy
3:45 PM 51.8 °F - 46.4 °F 82% 30.39 in 6.2 mi North 12.7 mph - N/A   Mostly Cloudy
4:15 PM 50.0 °F - 46.4 °F 87% 30.39 in - North 11.5 mph - N/A   Clear
4:45 PM 50.0 °F - 44.6 °F 82% 30.42 in - North 9.2 mph - N/A   Clear
5:15 PM 48.2 °F - 44.6 °F 87% 30.42 in - North 8.1 mph - N/A   Clear
5:45 PM 48.2 °F - 44.6 °F 87% 30.42 in - North 9.2 mph - N/A   Clear
6:15 PM 46.4 °F 42.9 °F 42.8 °F 87% 30.42 in - North 6.9 mph - N/A   Clear
6:45 PM 46.4 °F 42.4 °F 42.8 °F 87% 30.42 in - North 8.1 mph - N/A   Clear
7:00 PM 46 °F - 42 °F 83% 30.44 in 6 mi North 6.7 mph - -   Partly Cloudy
7:15 PM 46.4 °F 41.5 °F 41.0 °F 81% 30.42 in - North 10.4 mph - N/A   Clear
7:45 PM 46.4 °F 42.4 °F 41.0 °F 81% 30.45 in - North 8.1 mph - N/A   Clear
8:45 PM 46.4 °F 41.5 °F 39.2 °F 76% 30.45 in - North 10.4 mph - N/A   Clear
9:45 PM 44.6 °F 39.2 °F 37.4 °F 76% 30.45 in - NNE 10.4 mph - N/A   Clear
10:45 PM 44.6 °F 38.8 °F 37.4 °F 76% 30.45 in - NNE 11.5 mph - N/A   Clear
11:45 PM 42.8 °F 38.0 °F 37.4 °F 81% 30.48 in - North 8.1 mph - N/A   Clear